SCP
0 0 0 0 0 0 0 0 0 0 0 0 0 0 0 1 1 1 1 1 1 1 1 1 1 1 1 1 0 0 0 0 0 0 1 1 1 1 1 1 1 1 1 0 0 0 0 0 0
0 0 0 0 0 0 0 0 0 0 0 0 0 0 0 0 0 0 1 1 1 1 1 1 1 1 1 1 0 0 0 0 0 1 1 1 1 1 1 1 1 1 1 1 0 0 0 0 0
0 0 0 0 0 0 0 0 0 0 0 0 0 0 0 0 0 0 1 1 1 1 1 1 1 1 1 1 0 0 0 0 1 1 1 1 1 1 1 1 1 1 1 1 0 0 0 0 0
0 0 0 0 0 0 0 0 0 0 0 0 0 0 0 0 0 0 0 1 1 1 1 1 1 1 1 0 0 0 0 0 1 1 1 1 1 1 1 1 1 0 0 0 0 0 0 0 0
0 0 0 0 0 0 0 0 0 0 0 0 0 1 1 0 0 0 0 1 1 1 1 1 1 1 0 0 0 0 0 0 1 1 1 1 1 1 1 0 0 0 0 0 0 0 0 0 0
0 0 0 0 0 0 0 0 0 0 0 0 1 1 1 0 0 0 0 1 1 2 2 1 1 1 0 0 0 0 0 0 0 1 1 1 1 1 0 0 0 0 0 0 0 0 0 0 0
0 0 0 0 0 0 0 0 0 0 0 0 1 1 1 1 0 0 0 1 2 2 2 1 1 1 0 0 0 0 0 0 0 1 1 1 1 0 0 0 0 0 0 0 0 0 0 0 0
0 0 0 0 0 0 0 0 0 0 0 0 0 1 1 1 1 0 0 1 1 2 2 1 1 0 0 0 0 0 0 0 0 0 0 0 0 0 0 0 1 1 1 0 0 0 0 0 0
0 0 0 0 0 0 0 0 0 0 0 0 1 1 1 1 1 1 0 0 1 1 1 1 0 0 0 0 0 0 0 0 0 0 0 0 0 0 0 1 1 1 1 1 1 0 0 0 0
0 0 0 0 0 0 0 0 0 0 0 0 1 1 1 1 1 1 1 1 1 1 1 1 1 0 0 1 1 0 0 0 0 0 0 0 0 0 1 1 1 1 1 1 1 1 0 0 0
0 0 0 0 0 0 0 0 0 0 0 0 1 1 1 1 1 1 1 1 1 1 1 1 1 1 1 1 1 1 1 1 0 1 1 1 1 1 1 2 2 1 1 1 1 1 1 0 0
0 0 0 0 0 0 0 0 0 0 0 0 1 1 2 1 1 1 1 1 1 1 1 1 2 2 2 2 2 1 1 1 1 1 1 1 1 1 2 3 2 1 1 1 1 1 1 1 0
0 0 0 0 0 0 0 0 0 0 0 1 1 2 2 1 1 1 1 1 1 1 1 2 3 3 3 3 2 2 2 2 2 2 2 2 2 2 3 3 3 2 2 2 1 1 1 1 1
0 0 0 0 0 0 0 0 0 0 0 1 1 1 2 1 1 1 1 1 2 2 2 3 4 4 4 4 4 3 3 4 4 4 4 4 3 3 4 4 3 3 3 3 3 2 2 2 2
0 0 0 0 0 0 0 0 0 0 0 0 1 1 1 1 1 1 1 2 2 3 4 5 5 6 6 5 5 5 5 5 6 6 6 5 5 5 5 5 4 4 4 4 4 4 3 3 2
0 0 0 0 0 0 0 0 0 0 0 0 0 1 1 1 1 1 2 3 4 5 6 7 7 7 7 7 7 7 8 8 7 7 7 7 7 6 5 5 5 5 4 4 4 4 4 3 3
0 0 0 0 0 0 0 0 0 0 0 0 1 1 1 1 1 2 3 4 6 8 10 10 10 10 9 8 9 9 9 9 9 9 9 9 8 7 6 6 6 5 5 4 4 4 4 4 3
0 0 0 0 0 0 0 0 0 0 1 1 2 2 2 2 2 3 4 6 8 11 14 15 15 13 12 11 11 10 10 10 9 10 10 9 8 7 7 7 6 6 5 5 4 4 4 4 3
0 0 0 0 0 0 0 0 0 1 1 2 2 3 3 3 4 5 6 9 11 14 17 19 18 16 14 13 12 11 11 10 9 9 9 8 7 6 6 6 5 5 5 5 4 3 3 2 2
0 0 0 0 0 0 0 0 0 1 2 3 3 4 4 5 6 7 8 11 14 16 18 19 18 17 15 14 13 11 11 10 8 7 8 7 6 5 5 4 4 4 4 3 2 1 1 1 1
0 0 0 0 0 0 0 0 1 2 2 3 4 5 6 7 8 9 11 14 17 19 19 19 19 18 17 15 13 11 10 9 8 8 7 6 4 3 3 3 3 2 2 1 0 0 0 0 0
0 0 0 0 0 0 0 0 1 2 3 4 6 8 9 10 11 12 14 17 20 21 21 21 21 20 19 17 14 12 11 10 9 8 6 4 2 2 1 1 1 1 1 0 0 0 0 0 0
0 0 0 0 0 0 0 0 1 3 5 7 10 12 13 13 14 15 17 19 21 22 23 24 24 23 21 18 14 12 10 8 7 6 4 2 1 1 1 1 0 0 0 0 0 0 0 0 0
0 0 0 0 0 0 0 0 1 4 6 9 13 16 16 15 14 15 16 20 23 25 26 27 27 24 20 16 13 11 8 5 4 3 2 1 1 1 0 0 0 0 0 0 0 0 0 0 0
0 0 0 0 0 0 0 0 2 5 8 10 13 16 17 16 14 15 17 20 24 27 27 27 25 21 16 12 9 7 5 3 2 2 1 1 0 0 0 0 0 0 0 0 0 0 0 0 0
0 0 0 0 0 0 0 1 4 6 9 10 10 11 12 13 14 14 15 16 19 21 21 20 18 15 11 8 6 4 3 3 2 2 1 0 0 0 0 0 0 0 0 0 0 0 0 0 0
0 0 0 0 0 0 1 3 5 6 8 8 7 6 6 8 9 9 9 9 11 11 10 9 9 8 7 5 4 3 2 2 2 1 1 0 0 0 0 0 0 0 0 0 0 0 0 0 0
0 0 0 0 0 0 1 3 4 5 6 6 5 3 3 3 3 3 3 4 4 4 3 3 3 4 4 3 2 2 1 1 1 1 0 0 0 0 0 0 0 0 0 0 0 0 0 0 0
0 0 0 0 0 0 1 2 4 5 5 4 3 2 1 1 1 1 1 1 1 1 1 1 1 2 2 2 1 1 1 1 1 0 0 0 0 0 0 0 0 0 0 0 0 0 0 0 0
0 0 0 0 0 0 0 2 4 6 6 4 3 1 1 0 0 0 0 0 0 0 0 0 1 1 1 1 1 1 1 1 1 0 0 0 0 0 0 0 0 0 0 0 0 0 0 0 0
Wind_Speed
13 15 13 10 9 10 15 9 2 9 11 8 8 5 7 13 11 9 8 13 23 21 19 18 16 14 13 14 14 14 14 13 13 12 10 10 10 11 11 11 11 11 11 11 10 9 8 7 6
12 15 11 8 10 12 10 6 7 10 8 3 5 5 8 14 11 11 11 15 23 21 17 16 17 15 14 14 14 14 14 14 13 12 11 11 11 10 10 11 11 11 10 10 9 8 7 6 5
11 15 9 9 14 14 10 8 6 6 4 2 4 6 9 9 10 9 13 16 21 19 17 18 17 16 15 15 15 14 14 14 13 12 11 11 10 10 10 10 10 10 9 9 8 7 6 5 4
9 8 8 11 17 18 13 8 2 2 1 2 3 5 13 8 8 13 16 16 20 20 19 18 17 17 16 15 15 15 14 14 13 12 11 11 10 9 9 9 9 9 8 8 7 6 5 3 2
10 9 12 16 20 21 16 11 4 3 3 1 2 9 11 12 16 17 15 16 18 19 19 17 17 16 16 15 15 14 14 13 13 12 11 10 10 9 8 8 8 8 7 7 6 5 4 2 2
10 11 14 16 20 20 18 13 6 5 4 3 2 9 10 14 16 15 14 13 18 20 19 17 17 17 16 15 14 13 13 12 12 12 11 10 9 8 7 7 7 7 6 6 5 4 3 1 1
13 14 17 20 19 19 17 11 6 7 6 4 5 8 12 16 15 14 14 13 18 20 19 16 15 14 15 14 13 13 12 12 12 11 11 10 9 8 7 7 6 6 6 5 5 4 2 1 3
14 14 21 20 20 19 18 13 8 9 6 6 5 3 12 16 15 14 13 12 16 19 18 15 15 14 13 12 13 13 12 12 12 11 11 10 9 8 8 8 7 7 6 6 5 4 3 4 5
18 16 18 19 19 17 17 13 10 8 5 3 4 3 14 18 17 15 13 12 14 17 17 15 15 14 13 13 13 13 12 11 11 10 10 9 7 8 8 9 11 9 7 7 6 6 6 7 8
16 16 20 20 20 18 15 12 10 9 8 7 5 8 18 17 17 16 16 14 15 16 18 16 16 15 14 12 11 9 9 9 8 8 9 7 6 6 7 11 13 10 9 8 9 9 9 8 6
18 19 17 19 20 17 13 10 10 9 9 11 15 18 20 20 17 16 17 15 16 15 14 17 16 14 13 10 11 7 7 8 8 8 9 6 4 3 5 5 7 7 8 7 8 8 7 7 4
19 18 18 18 16 11 13 11 9 10 9 7 10 18 20 20 19 17 17 16 16 16 15 16 16 13 12 11 10 8 7 8 7 7 9 6 3 2 4 3 5 5 5 5 5 6 6 4 2
19 18 16 16 15 10 12 14 12 12 9 8 6 11 19 20 19 16 15 17 17 17 14 14 14 12 7 6 8 8 6 8 8 7 7 6 4 3 3 2 2 2 2 3 3 3 1 1 1
16 17 18 15 13 13 14 15 15 15 13 9 9 10 12 15 16 15 14 15 16 16 13 11 12 12 7 5 4 5 5 5 6 6 8 6 3 3 3 2 1 1 2 1 0 1 2 0 1
16 15 16 16 15 15 15 18 20 18 15 14 14 14 13 12 14 15 15 14 16 15 13 11 11 12 9 8 6 4 4 6 5 6 7 6 5 5 4 3 2 1 1 2 2 3 2 1 2
14 16 16 17 18 17 18 19 18 18 16 15 13 13 14 13 15 13 14 11 14 15 13 12 13 14 10 8 7 4 4 6 6 6 7 7 7 7 4 3 2 1 1 2 2 3 3 3 4
15 16 17 18 19 18 19 18 17 16 15 12 11 11 11 12 12 11 13 13 12 15 14 12 11 13 13 9 7 5 5 6 6 6 7 7 7 7 6 4 3 2 3 3 2 3 3 4 4
14 17 18 18 18 21 20 18 16 12 12 11 11 10 10 11 11 10 12 15 13 14 14 12 10 11 12 9 6 5 6 6 6 6 7 8 6 6 5 4 4 3 3 3 4 4 4 3 3
19 16 17 17 17 20 18 17 15 10 10 10 8 8 7 7 6 5 6 11 14 14 14 12 11 11 10 8 8 7 6 6 6 6 7 6 6 6 5 4 4 3 3 4 5 4 3 3 2
19 18 16 14 14 15 14 16 15 12 10 6 5 2 1 2 4 4 4 7 12 13 13 13 11 11 10 8 6 5 7 6 6 5 6 6 6 6 5 5 4 4 4 5 4 3 2 2 1
15 15 15 12 9 8 7 13 15 14 10 8 5 1 3 5 6 6 5 4 5 10 13 13 12 11 10 9 8 8 6 5 4 5 4 5 6 6 5 5 5 4 4 4 4 3 3 2 1
12 14 15 15 10 8 12 12 16 15 13 10 7 3 4 8 9 11 12 11 7 3 8 11 12 11 10 11 10 12 8 6 5 5 5 7 7 7 6 7 6 5 5 5 4 3 2 3 2
13 13 14 15 13 12 12 14 14 16 18 14 6 7 11 13 15 15 15 14 13 11 7 9 11 11 10 9 10 9 8 7 7 8 9 8 8 8 8 8 7 6 6 6 5 4 4 3 3
12 14 14 13 12 16 15 15 15 8 10 9 12 15 15 15 15 14 14 14 13 13 12 12 13 12 10 9 8 9 11 11 11 10 9 8 6 6 8 8 7 6 6 5 4 4 6 5 4
13 12 9 11 12 15 15 16 10 7 17 18 18 16 15 14 14 13 14 14 13 13 13 13 14 13 11 11 10 10 11 11 11 10 9 8 6 6 7 7 6 6 5 5 5 5 5 5 5
13 15 12 10 11 13 19 18 6 16 19 19 18 16 15 14 13 13 13 12 12 13 13 13 14 14 12 12 11 10 10 9 9 10 9 8 7 7 7 6 6 6 5 5 4 3 3 3 3
13 14 16 16 18 15 12 8 14 16 17 17 17 16 15 13 13 12 12 12 12 13 13 13 14 14 13 13 13 12 12 11 11 10 10 8 7 7 7 6 6 5 5 4 3 3 3 2 2
15 13 9 12 13 15 13 7 11 16 16 16 15 15 14 13 12 12 11 11 11 11 12 13 13 13 13 12 11 11 12 11 10 10 10 9 8 7 7 6 5 5 4 3 2 2 2 2 2
13 14 13 10 12 13 12 3 6 15 16 16 15 14 13 12 11 10 9 10 10 11 11 12 12 13 13 13 12 12 11 11 11 10 10 8 7 6 6 5 4 3 3 3 2 2 2 2 3
11 13 12 10 12 12 10 2 11 16 17 18 16 14 12 12 11 10 9 9 10 11 11 12 12 12 12 12 12 12 11 11 11 10 9 7 6 5 5 4 3 3 4 3 3 4 4 4 5
Wind_Direction
280 273 273 279 262 249 261 281 31 64 56 51 61 33 35 52 51 90 121 119 113 121 126 125 121 120 122 131 137 138 138 139 137 134 131 125 117 112 110 109 108 108 107 106 103 98 92 88 86
284 286 285 264 265 269 288 314 47 57 74 73 87 64 55 66 72 103 118 117 118 124 132 128 125 122 123 129 135 139 141 142 140 138 134 128 123 118 115 113 111 110 109 107 103 98 93 89 86
273 273 276 269 261 267 279 314 33 55 88 80 64 62 62 66 86 107 119 131 124 129 130 127 130 125 125 128 134 138 141 142 140 138 136 132 128 123 119 117 114 112 111 109 104 99 94 88 80
259 253 247 260 266 268 268 279 327 5 13 95 81 73 83 75 101 119 133 143 130 131 128 133 132 129 128 129 134 138 140 141 141 139 137 134 130 126 123 121 119 117 116 113 108 103 98 85 61
241 258 257 260 265 271 277 281 295 275 277 260 115 97 92 92 103 119 147 145 134 132 129 136 135 133 132 133 135 138 140 141 140 139 137 134 132 129 128 128 126 123 122 118 114 111 104 81 21
239 243 251 255 260 263 265 265 258 249 244 273 204 108 108 114 117 138 146 148 135 129 130 136 137 138 138 139 139 139 140 140 139 139 138 137 135 134 134 134 132 129 127 125 123 124 120 96 325
240 246 250 256 263 269 274 277 261 242 220 230 244 133 131 129 134 144 144 154 135 132 132 144 144 143 143 142 142 141 139 139 138 139 140 142 144 145 146 143 140 137 137 138 139 146 158 216 271
236 248 253 257 264 271 276 274 252 239 214 200 239 170 135 134 143 144 150 153 138 134 137 149 153 153 154 151 149 146 143 141 141 144 150 153 156 162 164 162 155 149 150 153 156 167 197 232 251
231 241 247 250 257 263 265 259 235 224 207 186 244 162 133 143 150 151 153 154 142 137 141 153 157 160 165 163 156 152 149 147 149 156 163 168 184 183 183 189 154 158 161 164 171 190 215 234 243
225 233 241 250 260 267 263 247 228 214 185 179 193 139 138 154 158 161 161 164 153 148 150 159 162 164 173 167 152 165 169 162 181 176 174 194 211 196 181 153 154 163 170 179 192 206 221 234 237
226 234 246 249 255 268 274 248 229 234 220 196 176 162 158 162 166 172 168 169 160 159 163 162 165 168 174 160 155 173 179 164 193 186 173 195 205 187 140 148 156 169 183 197 197 212 226 225 227
230 235 244 256 268 261 269 275 246 242 251 242 189 164 164 167 173 180 172 169 161 165 176 165 164 168 175 163 162 171 176 163 180 177 173 182 187 180 153 175 175 185 196 206 194 221 218 225 222
230 240 246 253 271 268 255 266 271 269 262 262 231 175 171 174 175 183 176 167 165 167 178 169 165 161 170 151 158 169 171 162 167 163 167 164 169 180 157 169 174 206 172 174 238 243 148 103 251
236 231 246 249 247 254 256 258 260 260 258 243 219 187 187 181 183 182 177 170 168 165 173 170 159 152 156 146 153 149 157 143 147 143 153 161 152 136 113 109 91 7 26 65 265 313 109 114 356
251 245 236 237 237 236 244 249 248 247 239 224 216 188 187 192 194 187 182 175 166 161 164 160 156 153 157 161 169 155 153 139 130 125 130 135 120 112 108 105 97 40 13 11 26 359 25 72 39
237 242 243 232 224 229 235 244 239 229 228 220 212 197 183 188 202 193 184 173 163 160 159 162 170 160 160 166 167 164 155 134 121 114 116 116 112 113 115 111 109 107 72 44 33 12 24 34 44
233 230 236 236 214 216 223 241 247 220 212 213 213 201 190 188 203 192 184 176 166 156 156 163 167 161 164 163 156 153 137 116 113 116 117 118 119 126 127 125 125 110 93 74 63 44 33 45 36
223 224 231 235 210 208 218 232 247 204 203 206 212 205 190 196 197 198 177 169 164 154 154 159 162 156 155 157 147 148 125 114 109 108 115 120 124 126 124 120 121 121 112 95 81 78 57 52 31
257 252 237 230 210 200 217 231 239 211 209 212 206 212 196 194 173 167 158 161 155 151 154 159 167 157 156 159 161 158 140 120 110 106 111 109 110 108 105 111 109 106 108 108 103 94 82 65 28
257 271 266 237 207 194 211 232 240 235 208 214 235 211 89 73 65 71 116 147 151 153 156 160 163 162 164 160 151 137 122 115 113 106 95 96 102 102 103 109 114 112 111 112 113 110 112 87 85
246 260 268 262 194 178 228 246 248 246 225 197 207 226 41 37 36 40 49 90 142 158 162 167 165 161 161 142 125 119 109 109 108 108 93 81 89 94 100 109 111 112 118 122 118 122 133 141 116
245 252 267 277 259 214 203 236 237 238 234 215 195 138 68 43 38 34 33 37 40 93 149 147 147 146 142 134 142 146 147 141 126 113 97 85 79 85 91 94 96 98 97 101 104 98 102 108 107
245 248 248 261 269 266 236 238 242 223 222 213 162 104 73 57 48 41 36 31 32 36 73 115 118 117 123 128 139 136 128 116 110 104 97 86 77 76 82 88 89 90 89 88 85 80 72 70 65
244 250 242 237 249 247 246 252 253 255 236 156 111 84 72 65 57 47 40 37 38 42 55 80 93 95 99 110 118 121 121 118 115 108 103 92 85 83 84 88 89 89 89 88 85 76 70 64 57
229 238 227 216 228 242 235 239 239 77 76 97 97 86 74 66 61 53 46 44 45 48 60 72 84 85 87 90 93 101 108 110 110 109 105 104 100 95 89 91 90 88 86 83 75 69 64 55 46
214 234 241 237 229 234 224 224 170 107 98 98 97 92 82 72 64 58 53 51 54 56 62 72 79 82 83 84 85 86 89 93 97 100 105 105 102 98 95 89 86 86 86 83 73 74 73 64 28
229 225 247 266 281 284 262 170 113 118 115 111 107 98 88 80 72 65 60 59 61 63 65 72 78 80 80 83 85 82 84 90 97 101 100 99 102 105 97 92 89 83 76 73 69 76 60 49 15
246 241 238 249 265 276 278 179 165 152 135 122 111 103 96 87 78 71 66 66 67 69 71 72 77 81 82 83 86 91 93 97 99 98 96 99 100 101 103 97 93 91 86 74 48 63 69 28 19
230 242 252 260 261 263 272 332 81 141 134 123 112 105 99 91 85 80 78 78 80 79 79 80 80 82 83 85 88 92 94 95 96 98 100 101 102 104 104 106 107 108 96 66 40 19 25 14 12
243 246 248 252 263 273 279 65 95 119 121 118 113 107 101 98 94 92 90 89 89 90 88 88 88 88 89 91 91 90 91 93 94 95 96 98 100 101 102 100 91 83 78 57 22 6 19 13 10